This is the latest recevied weather packets stored in our database for station/object SR2WXM. If no packets are shown the sender has not sent any weather packets the latest 10 day(s).
| Time | Temp. | Humidity | Pressure | Rain* | Wind** | Luminosity | Snow |
|---|---|---|---|---|---|---|---|
| 1777883406 | 21.67° C | 42% | 1010.5 hPa | 0 mm | - | - | - |
| 1777882502 | 22.78° C | 43% | 1010.5 hPa | 0 mm | - | - | - |
| 1777881603 | 22.78° C | 42% | 1010.5 hPa | 0 mm | - | - | - |
| 1777880701 | 20.56° C | 44% | 1010.5 hPa | 0 mm | - | - | - |
| 1777879802 | 20° C | 49% | 1010.5 hPa | 0 mm | - | - | - |
| 1777878903 | 20° C | 48% | 1009.8 hPa | 0 mm | - | - | - |
| 1777878004 | 20° C | 47% | 1009.8 hPa | 0 mm | - | - | - |
| 1777877104 | 18.89° C | 47% | 1009.8 hPa | 0 mm | - | - | - |
| 1777876202 | 17.78° C | 50% | 1009.4 hPa | 0 mm | - | - | - |
| 1777875303 | 18.89° C | 49% | 1009.8 hPa | 0 mm | - | - | - |
| 1777874402 | 16.67° C | 51% | 1009.4 hPa | 0 mm | - | - | - |
| 1777873503 | 17.78° C | 50% | 1009.4 hPa | 0 mm | - | - | - |
| 1777872602 | 15.56° C | 54% | 1009.4 hPa | 0 mm | - | - | - |
| 1777871703 | 15° C | 56% | 1009.4 hPa | 0 mm | - | - | - |
| 1777870802 | 13.89° C | 57% | 1009.4 hPa | 0 mm | - | - | - |
| 1777869902 | 13.89° C | 58% | 1009.4 hPa | 0 mm | - | - | - |
| 1777869003 | 13.89° C | 58% | 1009.1 hPa | 0 mm | - | - | - |
| 1777868102 | 13.89° C | 58% | 1009.1 hPa | 0 mm | - | - | - |
| 1777867202 | 13.89° C | 60% | 1009.1 hPa | 0 mm | - | - | - |
| 1777866302 | 13.89° C | 59% | 1009.1 hPa | 0 mm | - | - | - |
| 1777865403 | 12.78° C | 61% | 1009.1 hPa | 0 mm | - | - | - |
| 1777864503 | 12.78° C | 61% | 1009.1 hPa | 0 mm | - | - | - |
| 1777863602 | 12.78° C | 60% | 1009.4 hPa | 0 mm | - | - | - |
| 1777862702 | 12.78° C | 61% | 1009.1 hPa | 0 mm | - | - | - |
| 1777861803 | 13.89° C | 59% | 1009.4 hPa | 0 mm | - | - | - |
* Rain latest hour (hover to see other rain measurements)
** Current wind speed in m/s (hover to see current wind gust speed)